{"data":{"norad_id":57771,"epoch":"2026-05-24T23:47:37.577760Z","epoch_age_seconds":72178,"freshness":"FRESH","line1":"1 57771U 23134A   26144.99140715  .00000381  00000+0  23380-4 0  9994","line2":"2 57771  43.0016 123.8007 0001290 304.3192  55.7538 15.27576469151178","mean_motion":15.27576469,"eccentricity":0.000129,"inclination_deg":43.0016,"raan_deg":123.8007,"arg_perigee_deg":304.3192,"mean_anomaly_deg":55.7538,"bstar":2.338e-5,"rev_number":15117,"period_min":94.266966611673,"perigee_km":482.17457477397,"apogee_km":483.94476351461,"semimajor_km":6861.1966691443,"source":"CELESTRAK","updated_at":"2026-05-25T13:38:18.403421Z"}}